Observations for Trim Market St
| Time | AQI | Temp °C | Hum % | Pres Pa | CO μg/m³ | H₂S μg/m³ | NO μg/m³ | NO₂ μg/m³ | O₃ μg/m³ | SO₂ μg/m³ | PM1 μg/m³ | PM2.5 μg/m³ | PM10 μg/m³ |
|---|---|---|---|---|---|---|---|---|---|---|---|---|---|
| Saturday 22 August 2026 | |||||||||||||
| 05:18 | 2 | 11.9 | 71 | 55,393 | 0.35 | 0 | 3.84 | 8.2 | 52.86 | 0 | 2.85 | 3.97 | 6.29 |
| 05:17 | 2 | 11.9 | 71 | 55,435 | 0.36 | 0 | 3.21 | 7.57 | 49.19 | 0 | 1.43 | 3.98 | 8.15 |
| 05:16 | 2 | 11.9 | 71 | 55,471 | 0.35 | 0 | 3.37 | 8.53 | 50.14 | 0 | 1.43 | 3.01 | 6.29 |
| 05:15 | 2 | 12 | 71 | 55,510 | 0.34 | 0 | 3.27 | 7.48 | 49.59 | 0 | 1.43 | 3.5 | 5.67 |
| 05:14 | 2 | 12 | 71 | 55,550 | 0.35 | 0 | 2.98 | 7.72 | 49.28 | 0 | 2.14 | 4.47 | 7.53 |
| 05:13 | 2 | 12 | 71 | 55,589 | 0.34 | 0 | 2.65 | 8.42 | 50.19 | 0 | 2.14 | 4.47 | 6.91 |
| 05:12 | 2 | 12 | 71 | 55,636 | 0.37 | 0 | 2.95 | 9.1 | 48.92 | 0 | 1.43 | 3.02 | 6.91 |
| 05:11 | 2 | 12.1 | 71 | 55,675 | 0.35 | 0 | 3 | 8.69 | 51.49 | 0 | 2.14 | 4.48 | 6.91 |
| 05:10 | 2 | 12.1 | 71 | 55,710 | 0.34 | 0 | 2.87 | 6.64 | 56.7 | 0 | 1.43 | 3.03 | 5.04 |
| 05:06 | 2 | 12.2 | 70 | 55,813 | 0.33 | 0 | 3.13 | 7.9 | 51.09 | 0 | 2.14 | 4 | 6.28 |
| 05:02 | 2 | 12.3 | 70 | 55,935 | 0.34 | 0 | 2.7 | 7.43 | 50.2 | 0 | 2.14 | 2.55 | 5.03 |
| 04:59 | 2 | 12.4 | 70 | 56,024 | 0.35 | 0 | 2.76 | 7.22 | 51.79 | 0 | 1.43 | 3.04 | 6.28 |
| 04:55 | 2 | 12.5 | 70 | 56,102 | 0.36 | 0 | 3.37 | 7.1 | 51.16 | 0 | 2.14 | 3.05 | 6.9 |
| 04:53 | 2 | 12.5 | 70 | 56,106 | 0.36 | 0 | 3.14 | 7.81 | 55.1 | 0 | 2.14 | 3.54 | 5.65 |
| 04:50 | 2 | 12.6 | 70 | 56,116 | 0.36 | 0 | 3.87 | 7.41 | 51.3 | 0 | 2.14 | 3.54 | 6.28 |
| 04:49 | 2 | 12.6 | 70 | 56,121 | 0.36 | 0 | 3.68 | 7.84 | 53.57 | 0 | 1.43 | 3.54 | 6.28 |
| 04:48 | 2 | 12.7 | 70 | 56,117 | 0.36 | 0 | 3.55 | 7.96 | 53.93 | 0 | 1.43 | 3.54 | 6.28 |
| 04:47 | 2 | 12.7 | 70 | 56,116 | 0.37 | 0 | 3.45 | 8.05 | 57.17 | 0 | 2.14 | 3.54 | 6.28 |
| 04:46 | 2 | 12.7 | 70 | 56,117 | 0.37 | 0 | 2.72 | 7.75 | 53.86 | 0 | 2.85 | 4.03 | 6.9 |
| 04:45 | 2 | 12.7 | 70 | 56,116 | 0.37 | 0 | 2.73 | 9.3 | 72.81 | 0 | 2.14 | 3.06 | 5.65 |